Wind_Speed
21 23 25 27 28 28 29 28 27 26 27 24 22 22 21 22 20 17 15 14 13 12 12 11 11 11 12 12 13 13 14 15 14 13 13 13 13 13 12 11 10 9 8
18 20 22 24 26 28 28 27 27 26 26 26 24 23 22 22 21 20 18 16 15 14 13 13 13 12 12 13 13 13 14 14 14 14 13 13 13 13 12 11 11 9 8
15 17 19 22 24 27 27 27 27 26 26 26 25 24 23 23 23 21 20 19 18 16 15 14 14 14 14 13 13 14 14 14 14 14 13 13 13 13 12 11 11 10 9
13 14 16 18 21 24 25 25 26 26 26 25 26 25 24 24 25 24 22 21 20 19 18 17 16 16 15 15 15 15 15 15 15 15 14 14 13 12 12 12 11 11 10
10 10 12 15 17 19 22 24 25 26 26 26 26 26 25 24 25 26 26 24 23 22 21 20 19 18 17 17 17 16 16 15 15 15 15 14 14 13 13 12 11 11 10
8 9 9 11 14 16 18 21 22 24 25 26 27 27 27 26 26 27 28 27 26 25 24 22 22 21 20 19 18 18 17 17 16 16 16 16 15 14 13 13 12 12 11
8 7 8 8 10 13 16 18 20 23 25 25 26 27 27 27 27 27 27 28 28 28 27 25 24 24 23 21 21 20 19 19 18 17 17 17 17 15 14 14 13 13 12
9 7 6 6 7 10 13 16 18 20 22 24 25 26 27 27 27 28 27 28 29 29 29 28 27 26 26 24 24 23 22 21 20 19 19 19 19 18 16 16 15 14 14
12 9 7 5 5 7 10 13 16 17 19 21 23 25 26 26 27 28 28 29 30 30 30 31 30 29 28 27 26 25 24 24 23 22 21 21 20 20 19 18 17 16 16
13 11 9 7 5 4 6 9 11 14 17 20 22 24 25 26 27 28 29 30 30 30 31 31 32 32 32 31 30 29 28 27 26 25 24 24 23 22 21 20 20 19 18
15 13 11 9 7 5 4 5 8 11 14 17 20 22 25 26 27 28 29 30 31 31 32 33 34 33 33 34 34 33 32 31 30 29 28 27 26 25 24 23 22 21 21
17 15 13 11 9 7 5 5 6 8 11 14 17 19 22 24 26 27 29 30 31 32 33 33 35 36 35 35 36 36 36 35 34 33 32 31 30 29 27 26 25 24 23
17 16 15 13 11 9 7 6 6 7 9 11 14 16 18 21 24 26 27 29 30 33 34 35 36 36 37 38 38 38 38 38 37 36 36 35 35 33 32 30 29 28 27
17 16 15 14 12 11 10 8 7 5 6 8 11 14 16 19 21 23 26 28 29 31 34 35 37 39 39 39 40 40 40 41 41 40 39 39 38 37 36 35 33 32 31
17 16 15 14 13 12 11 10 9 7 5 5 7 10 12 15 17 20 23 25 28 30 32 34 37 39 40 42 43 43 43 44 43 43 43 42 41 41 40 39 37 37 35
16 16 15 15 14 13 13 12 11 9 7 6 6 7 9 11 14 17 20 23 25 28 31 34 36 38 41 43 44 45 46 46 45 45 45 45 45 44 44 43 42 41 39
15 15 15 15 15 14 13 13 13 12 10 8 7 7 8 9 11 14 17 20 22 25 28 31 35 37 39 42 44 46 47 48 47 48 48 47 47 47 46 46 45 44 43
15 15 15 14 14 14 14 14 13 13 12 10 9 8 8 9 10 12 14 17 20 22 25 28 32 35 38 40 42 44 46 49 50 50 50 50 49 49 49 48 48 47 46
14 14 14 14 14 14 14 14 14 13 13 12 10 10 9 10 10 11 12 14 17 20 23 26 30 33 36 38 40 42 45 47 49 51 52 52 52 51 51 51 50 49 48
15 14 14 14 14 13 13 13 13 13 13 13 12 11 11 10 11 11 12 13 14 17 20 23 26 29 32 34 36 39 42 45 47 49 51 52 53 53 53 53 52 51 50
15 15 15 14 14 14 13 13 14 14 14 13 13 12 12 12 12 12 12 12 13 14 16 18 21 24 27 29 31 34 38 41 44 46 48 50 51 52 53 53 54 53 52
16 16 16 15 15 14 14 14 14 14 14 14 14 13 13 13 13 13 13 14 14 14 15 17 18 20 23 25 27 29 32 36 39 42 44 46 48 49 51 52 53 54 53
18 17 17 16 16 15 15 14 14 15 15 15 15 14 14 14 14 14 14 15 15 15 15 16 17 19 20 22 23 25 27 30 33 37 39 41 43 45 47 49 52 53 54
19 19 18 17 17 16 16 15 15 15 15 15 15 15 15 15 15 15 15 15 15 15 15 16 17 18 19 19 21 22 24 25 28 31 34 37 40 42 44 46 48 50 52
21 20 19 18 17 17 16 16 16 16 16 16 16 16 16 16 16 16 16 16 16 16 16 16 17 17 18 19 20 21 22 23 25 28 31 33 36 39 41 42 45 47 50
22 21 20 19 18 18 18 17 17 17 17 17 17 17 17 17 17 17 17 17 17 17 17 17 17 17 18 19 20 21 21 22 23 26 28 30 32 36 38 39 41 44 46
Wind_Direction
262 254 249 246 241 241 242 240 240 239 236 231 233 233 230 227 227 229 228 227 226 222 216 212 209 204 201 200 199 200 200 200 201 201 199 198 198 198 196 196 193 192 192
266 259 251 245 240 239 239 238 237 238 237 233 233 233 229 227 227 228 227 226 224 222 219 216 210 202 201 201 201 199 199 202 203 202 202 202 200 198 198 199 199 195 195
272 262 254 248 244 240 238 237 237 236 235 234 234 233 230 229 228 229 227 226 226 226 222 218 212 205 204 204 203 202 202 203 204 205 205 203 199 199 200 202 202 197 196
279 267 258 252 248 243 238 235 235 235 234 232 231 230 228 227 228 230 229 228 227 226 223 220 216 212 210 209 206 205 204 206 206 206 207 204 200 201 204 203 201 199 201
291 276 263 256 250 245 239 236 234 234 234 232 231 229 228 227 229 230 230 230 228 226 224 222 219 217 214 212 210 208 207 207 207 206 206 205 204 205 204 201 202 204 204
305 288 274 260 251 246 241 238 237 236 234 233 232 230 229 229 230 229 231 230 229 228 226 224 221 220 217 216 214 212 211 210 209 208 209 210 210 209 205 205 207 208 208
331 307 288 269 254 245 242 240 240 237 235 234 232 230 231 231 231 231 232 232 230 230 228 225 223 223 220 219 218 216 216 215 214 213 212 213 213 212 212 213 215 215 214
359 347 323 291 263 248 242 240 242 239 237 234 232 231 232 233 233 233 234 234 231 229 228 226 224 225 224 224 223 221 220 220 220 219 218 217 217 217 218 219 220 220 219
14 7 356 334 292 260 248 244 242 242 237 235 233 233 233 234 235 233 235 235 235 233 230 228 227 227 227 226 227 226 224 224 224 224 223 222 222 222 222 222 222 223 223
17 14 8 0 343 296 263 253 246 242 239 236 234 234 234 235 236 235 234 234 236 234 231 230 228 228 229 228 229 230 229 228 228 228 227 227 226 227 227 226 227 227 228
21 19 16 10 359 342 303 269 254 245 241 239 236 235 236 237 235 236 236 234 234 234 232 232 231 230 230 230 230 232 232 232 232 231 231 231 230 230 231 232 232 232 233
22 22 21 18 11 360 340 306 275 255 245 242 240 239 239 238 237 238 238 237 236 236 234 233 232 232 233 233 233 232 233 234 234 234 234 234 233 234 234 235 235 236 237
22 22 22 21 19 14 3 342 311 281 260 250 246 243 242 241 241 241 241 241 240 237 236 235 235 235 236 236 235 234 235 236 236 237 237 237 237 237 237 238 238 239 240
21 22 22 22 21 18 13 5 350 320 286 264 255 251 248 246 246 245 244 243 243 241 239 239 238 238 239 239 238 238 238 239 239 239 240 239 239 239 239 240 241 241 242
19 20 21 21 21 19 16 11 4 351 326 291 270 259 254 251 249 248 247 247 246 245 244 243 241 240 240 241 241 241 241 240 240 240 240 240 240 241 241 242 243 244 245
16 17 19 20 19 18 16 14 11 4 353 332 305 280 268 262 256 252 250 250 249 249 249 248 247 245 243 242 242 242 242 241 241 241 241 241 241 242 242 243 244 245 246
12 13 14 15 15 15 14 12 11 9 1 350 333 308 290 281 272 264 259 256 255 252 251 251 251 249 247 245 243 242 242 242 242 242 242 243 243 243 243 244 244 245 246
7 9 9 8 9 10 10 9 8 6 2 357 347 331 314 300 288 279 272 266 262 259 256 256 254 252 250 249 247 245 244 243 243 243 243 244 244 243 243 244 245 245 246
1 2 2 1 1 2 3 3 4 3 2 358 353 345 332 318 307 295 287 278 272 267 263 261 259 255 253 251 250 249 248 246 245 244 244 245 245 244 244 245 245 245 245
353 352 352 352 353 353 354 355 355 356 357 357 353 347 341 333 322 311 301 293 285 278 271 267 264 260 257 254 253 251 250 249 248 247 245 245 245 244 244 245 245 245 245
344 343 342 342 342 343 344 346 347 347 348 348 347 344 340 337 333 326 318 309 300 292 283 276 271 266 262 259 258 256 254 252 251 249 248 246 246 245 245 244 245 245 245
337 335 334 334 333 333 333 335 337 338 339 339 338 337 336 334 331 327 323 318 312 305 296 288 281 274 268 265 263 262 259 256 254 252 249 248 248 248 246 245 244 244 244
332 329 327 326 325 324 325 326 327 329 330 331 332 331 330 328 328 327 323 319 317 311 304 297 290 283 275 271 268 266 264 262 258 255 252 250 249 249 249 248 247 246 245
331 326 323 321 320 319 318 319 320 321 322 323 325 326 326 325 323 323 322 319 317 313 308 302 297 290 282 276 273 270 268 264 260 257 255 253 252 252 251 250 249 249 248
332 328 323 319 316 315 314 313 313 313 315 316 318 319 321 321 319 317 318 317 316 314 311 307 301 298 291 283 279 275 273 268 264 261 259 256 254 254 253 251 249 249 248
333 330 326 320 316 313 312 311 310 310 310 311 312 313 315 316 317 316 315 314 313 312 311 310 305 301 298 292 287 281 277 273 268 265 263 261 258 257 255 252 251 249 248
Height
5796 5797 5799 5801 5804 5806 5810 5813 5816 5819 5822 5825 5829 5832 5835 5838 5842 5844 5847 5849 5851 5852 5854 5856 5858 5860 5863 5865 5867 5869 5871 5873 5876 5878 5880 5882 5884 5886 5888 5890 5891 5893 5894
5791 5792 5793 5795 5798 5800 5803 5807 5810 5814 5817 5820 5824 5828 5831 5834 5838 5841 5844 5846 5848 5850 5852 5854 5857 5859 5861 5863 5865 5867 5870 5872 5874 5876 5878 5880 5882 5885 5887 5888 5890 5891 5893
5786 5787 5788 5790 5792 5795 5798 5801 5805 5808 5812 5815 5819 5823 5826 5829 5833 5837 5840 5843 5846 5848 5850 5852 5855 5857 5859 5862 5864 5866 5868 5870 5872 5875 5877 5879 5881 5883 5885 5887 5889 5890 5892
5783 5783 5784 5785 5787 5790 5793 5796 5799 5803 5807 5810 5814 5818 5821 5825 5828 5832 5836 5839 5842 5845 5848 5850 5852 5855 5857 5860 5862 5864 5866 5868 5871 5873 5875 5877 5879 5881 5884 5885 5887 5889 5890
5780 5780 5781 5782 5783 5785 5788 5791 5794 5798 5802 5805 5809 5813 5816 5820 5824 5827 5831 5835 5838 5841 5844 5847 5850 5852 5855 5857 5860 5862 5864 5866 5869 5871 5873 5875 5878 5880 5882 5884 5886 5887 5889
5778 5778 5778 5778 5780 5782 5784 5787 5790 5793 5797 5800 5804 5808 5811 5815 5819 5822 5826 5830 5833 5837 5840 5843 5846 5849 5852 5855 5857 5860 5862 5864 5866 5869 5871 5873 5876 5878 5880 5882 5884 5886 5887
5777 5776 5776 5776 5777 5778 5781 5783 5786 5789 5792 5795 5799 5803 5806 5810 5814 5817 5821 5825 5829 5832 5836 5839 5842 5845 5848 5851 5854 5857 5859 5862 5864 5866 5869 5871 5873 5876 5878 5880 5882 5884 5886
5776 5775 5775 5774 5775 5776 5778 5780 5782 5784 5787 5791 5794 5798 5801 5806 5809 5812 5816 5820 5823 5827 5830 5834 5838 5841 5844 5847 5850 5853 5856 5859 5861 5864 5866 5868 5871 5873 5875 5877 5880 5882 5883
5777 5775 5774 5774 5773 5774 5775 5777 5778 5780 5783 5786 5789 5793 5797 5800 5803 5807 5811 5814 5817 5821 5825 5829 5833 5836 5840 5843 5846 5849 5852 5855 5858 5860 5863 5865 5867 5870 5872 5874 5876 5879 5881
5778 5776 5774 5773 5773 5773 5773 5774 5775 5777 5779 5782 5785 5788 5792 5795 5798 5802 5805 5808 5812 5815 5819 5823 5827 5830 5834 5838 5841 5844 5847 5850 5853 5856 5859 5861 5864 5866 5869 5871 5873 5875 5877
5779 5777 5775 5774 5773 5772 5772 5772 5773 5774 5776 5778 5781 5784 5787 5790 5793 5796 5799 5803 5806 5809 5813 5816 5820 5824 5827 5831 5835 5838 5842 5845 5848 5851 5854 5856 5859 5862 5864 5867 5869 5871 5873
5781 5778 5776 5774 5773 5772 5771 5771 5771 5772 5773 5775 5777 5779 5781 5784 5787 5790 5793 5796 5800 5803 5806 5810 5813 5817 5820 5824 5827 5831 5835 5838 5842 5845 5848 5851 5854 5856 5859 5862 5864 5866 5868
5783 5780 5777 5775 5773 5772 5771 5770 5770 5770 5770 5771 5773 5775 5777 5779 5782 5784 5787 5790 5793 5797 5800 5803 5806 5809 5813 5816 5820 5823 5827 5831 5834 5838 5841 5844 5847 5850 5853 5856 5858 5861 5863
5784 5781 5779 5776 5774 5773 5771 5770 5769 5768 5768 5768 5769 5770 5772 5774 5776 5778 5781 5784 5786 5789 5792 5796 5799 5802 5805 5808 5812 5815 5819 5823 5826 5830 5833 5837 5840 5843 5846 5849 5852 5854 5857
5786 5783 5780 5778 5775 5773 5771 5769 5768 5767 5766 5766 5766 5767 5768 5769 5771 5773 5775 5777 5780 5782 5785 5787 5790 5793 5796 5800 5803 5806 5810 5813 5817 5820 5824 5828 5831 5835 5838 5841 5844 5847 5849
5787 5784 5781 5779 5776 5774 5772 5770 5768 5766 5764 5764 5763 5763 5764 5765 5766 5767 5769 5770 5772 5775 5776 5778 5781 5784 5787 5790 5793 5797 5800 5803 5807 5810 5814 5817 5821 5825 5828 5832 5835 5838 5841
5787 5784 5782 5779 5777 5774 5772 5770 5767 5765 5763 5762 5760 5760 5760 5761 5761 5762 5763 5764 5765 5767 5768 5769 5771 5773 5776 5779 5783 5786 5789 5793 5796 5799 5803 5806 5810 5814 5818 5821 5825 5828 5831
5787 5785 5782 5779 5777 5774 5772 5769 5767 5765 5762 5760 5758 5758 5757 5757 5757 5757 5757 5757 5758 5759 5760 5761 5762 5764 5766 5768 5771 5774 5778 5781 5784 5788 5791 5795 5799 5802 5806 5810 5814 5817 5821
5787 5785 5782 5779 5777 5774 5772 5769 5766 5764 5761 5759 5757 5756 5754 5753 5753 5752 5752 5751 5751 5752 5752 5753 5753 5754 5755 5757 5760 5763 5765 5768 5772 5776 5779 5783 5786 5790 5794 5798 5802 5806 5809
5787 5784 5781 5779 5776 5774 5771 5769 5766 5763 5761 5758 5756 5754 5752 5751 5749 5748 5747 5746 5745 5745 5744 5744 5744 5744 5745 5747 5749 5751 5754 5756 5760 5763 5766 5770 5773 5777 5781 5786 5790 5794 5797
5785 5783 5780 5777 5775 5772 5770 5767 5765 5762 5760 5757 5754 5752 5750 5748 5746 5744 5743 5742 5740 5739 5738 5737 5737 5736 5737 5738 5739 5740 5742 5744 5747 5750 5753 5757 5761 5765 5768 5772 5776 5780 5784
5783 5780 5778 5775 5773 5770 5768 5765 5763 5760 5758 5755 5752 5750 5747 5745 5743 5741 5739 5737 5736 5734 5732 5731 5730 5729 5729 5729 5730 5731 5732 5734 5737 5739 5740 5744 5747 5751 5755 5758 5762 5766 5770
5780 5777 5775 5772 5770 5767 5765 5762 5760 5757 5755 5752 5750 5747 5745 5742 5740 5738 5736 5734 5732 5729 5728 5726 5725 5723 5723 5723 5723 5723 5723 5724 5725 5727 5729 5733 5735 5739 5742 5744 5748 5752 5756
5776 5774 5771 5769 5766 5764 5761 5759 5757 5754 5752 5749 5747 5744 5742 5739 5737 5734 5732 5730 5728 5725 5724 5721 5720 5718 5717 5716 5716 5716 5715 5716 5717 5717 5719 5723 5724 5727 5729 5732 5735 5739 5743
5772 5769 5767 5764 5762 5760 5758 5755 5753 5751 5748 5746 5743 5741 5738 5736 5733 5731 5729 5726 5724 5722 5719 5717 5715 5713 5712 5711 5710 5709 5709 5709 5709 5709 5710 5712 5714 5716 5718 5721 5724 5726 5730
5768 5765 5762 5760 5758 5755 5753 5751 5749 5747 5744 5742 5740 5737 5735 5732 5730 5727 5725 5722 5720 5718 5715 5713 5711 5709 5707 5705 5704 5703 5702 5702 5702 5702 5702 5703 5704 5705 5708 5710 5712 5714 5718